Okean 1-7 - Orbit

View from above orbital plane
View from above orbital plane
View from above satellite
View from above satellite

Ground track
Ground track

The orbit data is extracted from the following two-line orbital elements,

1 23317U 94066A   13168.47665672  .00000471  00000-0  52925-4 0  2478
2 23317 082.5390 049.5265 0020320 221.4975 265.9917 14.84493116  8988
Epoch (UTC): 17 June 2013 11:26:23
Eccentricity: 0.0020320
inclination: 82.5390°
perigee height: 601 km
apogee height: 629 km
right ascension of ascending node: 49.5265°
argument of perigee: 221.4975°
revolutions per day: 14.84493116
mean anomaly at epoch: 265.9917°
orbit number at epoch: 898

The dashed part of the orbit path shows where the satellite is in the earth's shadow,  

Developed and maintained by Chris Peat, Heavens-Above GmbH. Please read the updated FAQ before sending e-mail. Imprint. DLR